Главная страница
METAR-TAF:

METAR-TAF

Аэропорты :

College Park, Мэриленд, США

широта: 38-58-50N, долгота: 076-55-20W, высота над уровнем моря: 15 м

Текущие метеонаблюдения

Эта сводка был подготовлена 33 минут назад, в 23:03 UTC
Ветер 3 Узел от юго-юго-восточный
Температура 23°C
Влажность 78%
Давление 1015 hPa
Видимость: 16.1 км
ясное небо

METAR: KCGS 232303Z AUTO 16003KT 10SM CLR 23/19 A2998 RMK AO1 T02300188

Время: 19:36 (23:36 UTC)


TAF: отсутствует

Метеонаблюдения и прогнозы для более 4000 аэропортов (сводки METAR и TAF).

Имеющиеся станции представлены на карте желтыми и красными точками.

Чтобы увидеть название станции, наведите на нее мышь.

Затем щелкните, чтобы увидеть метеонаблюдения и метеопрогнозы.

Управление картой: чтобы увеличить масштаб, щелкните зеленые кнопки с черным крестиком; чтобы уменьшить масштаб, щелкните зеленую кнопку с тире; для просмотра соседних карт щелкайте зеленые стрелки.


METAR-TAF: